[[{"header":{"parameterUnit":"m.s-1","parameterCategory":1,"la1":30.2991,"la2":30.254,"lo1":-89.0895,"lo2":-89.0444,"dy":0.0017,"dx":0.0017,"nx":28,"ny":28,"refTime":"2024-10-02T03:00:00:Z","depth":0,"parameterNumber":2,"parameterNumberName":"U-component_of_WINDS"},"data":[0,0,0,0,0,0,0,0,0,0,0,0,0,0,0,0,0,0,0,0,0,0,0,0,0,0,0,0,0,0,0,0,0,0,0,0,0,0,0,0,0,0,0,0,0,0,0,0,0,0,0,0,0,0,0,0,0,0,0.6233,0.6233,0,0.6296,0.6296,0.6297,0.6354,0.6355,0.6355,0.6356,0.6419,0.642,0.6421,0,0,0,0,0,0,0,0,0,0,0,0,0,0.6159,0.616,0.6232,0.6233,0.6234,0.6295,0.6296,0.6297,0.6354,0.6355,0.6356,0.6356,0.6418,0.6419,0.6421,0,0,0,0,0,0,0,0,0,0,0,0,0,0.6203,0.616,0.6232,0.627,0.6274,0.6295,0.6296,0.6297,0.6354,0.6355,0.6356,0.6357,0.6418,0.6419,0.6421,0.6409,0,0,0.6425,0.6426,0,0,0,0,0,0,0,0,0.6201,0.6206,0.6264,0.6267,0.6272,0.6318,0.6293,0.6335,0.6354,0.6323,0.6356,0.6357,0.6384,0.6389,0.6398,0.6412,0.6415,0.6426,0.6427,0.6427,0.6428,0,0,0,0,0,0,0,0.6197,0.6203,0.6257,0.6264,0.6269,0.6283,0.629,0.6301,0.6347,0.6326,0.633,0.6337,0.6387,0.6396,0.64,0.6416,0.6426,0.6427,0.6428,0.6428,0.6423,0.6422,0,0,0,0,0,0,0.6189,0.62,0.6255,0.6259,0.6238,0.6283,0.6292,0.6302,0.6347,0.6355,0.6336,0.634,0.6393,0.6398,0.6402,0.6391,0.6427,0.6429,0.643,0.6424,0.6423,0.6422,0,0,0,0,0,0,0.6187,0.6193,0.6253,0.6231,0.624,0.6283,0.6295,0.6303,0.6313,0.6355,0.6363,0.6338,0.6394,0.64,0.6407,0.6394,0.6429,0.6431,0.6425,0.6424,0.6422,0.6368,0,0,0,0,0,0,0.6185,0.6192,0.6189,0.6231,0.6241,0.6257,0.6294,0.6303,0.6315,0.632,0.6359,0.6366,0.6396,0.6405,0.6409,0.6397,0.6432,0.6427,0.6425,0.6423,0.6371,0.6365,0.636,0,0,0,0,0,0.6182,0.6171,0.6189,0.6195,0.6238,0.6256,0.6262,0.6297,0.6314,0.6311,0.6338,0.6365,0.6395,0.6405,0.641,0.6398,0.6428,0.6425,0.6423,0.6374,0.6366,0.636,0,0,0,0,0,0,0.6126,0.6177,0.6197,0.62,0.6223,0.6266,0.6262,0.6288,0.6306,0.631,0.6352,0.636,0.6362,0.6381,0.6391,0.6389,0.6415,0.6413,0.6376,0.6369,0.6363,0.6358,0.6433,0,0,0,0,0,0.6114,0.6126,0.617,0.6168,0.6178,0.6218,0.6228,0.6253,0.6278,0.6288,0.6316,0.6339,0.6354,0.6363,0.6379,0.6375,0.6383,0.6369,0.6363,0.6358,0.6356,0.6354,0.6348,0.6414,0.6414,0.6414,0,0,0.6089,0.6119,0.6123,0.6157,0.6178,0.6188,0.6226,0.6236,0.6243,0.629,0.6298,0.6319,0.6348,0.6349,0.6351,0.6365,0.634,0.6355,0.6351,0.6351,0.6351,0.6344,0.6339,0.6412,0.6412,0.6413,0,0,0.6049,0.6073,0.6073,0.6094,0.6126,0.6152,0.6152,0.6191,0.6207,0.6216,0.6251,0.626,0.6285,0.6304,0.6317,0.6283,0.6308,0.6287,0.6256,0.6253,0.6248,0.6243,0.623,0.6224,0.6285,0.6285,0.6285,0,0.6013,0.6031,0.607,0.6077,0.609,0.6134,0.6134,0.6152,0.6186,0.6194,0.621,0.6241,0.6264,0.6269,0.6261,0.6271,0.6271,0.6282,0.6246,0.6242,0.6238,0.6225,0.622,0.6282,0.6283,0.6283,0.6283,0,0.5985,0.5997,0.5993,0.6026,0.6039,0.6043,0.6081,0.6089,0.6113,0.6138,0.6146,0.6174,0.6196,0.62,0.6223,0.6208,0.6216,0.6238,0.6265,0.6228,0.6217,0.6212,0.6278,0.6279,0.628,0.6281,0,0,0.591,0.5965,0.5963,0.5978,0.6017,0.6026,0.6031,0.6053,0.6058,0.6081,0.6085,0.6105,0.6126,0.614,0.6166,0.6164,0.6134,0.6187,0.6188,0.6174,0.6117,0.6099,0.6093,0.6151,0.6151,0.615,0.6114,0,0.5875,0.5887,0.5922,0.5923,0.5933,0.5975,0.5979,0.6002,0.6025,0.6037,0.6063,0.6075,0.6102,0.6111,0.6111,0.6137,0.6122,0.6141,0.6154,0.6154,0.6144,0.6087,0.6068,0.6032,0.611,0.6109,0.6109,0,0.5835,0.5855,0.5857,0.5894,0.59,0.5903,0.5926,0.5937,0.5964,0.5981,0.5997,0.6026,0.6032,0.6058,0.6067,0.6078,0.6086,0.61,0.6099,0.61,0.6128,0.6085,0.6022,0.6016,0.6103,0.6103,0.6104,0,0.5777,0.5806,0.581,0.5822,0.5866,0.5867,0.5885,0.5914,0.5925,0.5944,0.5951,0.5971,0.5982,0.5996,0.6029,0.6045,0.6033,0.6063,0.6046,0.6045,0.604,0.604,0.5976,0.6048,0.6048,0.6048,0.6049,0,0.5733,0.5732,0.5785,0.5787,0.5787,0.5828,0.5826,0.5848,0.5873,0.588,0.5917,0.5923,0.5967,0.5977,0.6003,0.6005,0.601,0.6023,0.6029,0.6019,0.6017,0.6023,0.6025,0.6047,0.6047,0.6048,0.6048,0,0.5668,0.5704,0.5711,0.5753,0.5763,0.5761,0.5796,0.5799,0.5825,0.5833,0.5837,0.5877,0.5891,0.5926,0.5949,0.5966,0.5961,0.5974,0.5951,0.5955,0.5936,0.5937,0.5873,0.5865,0.5944,0.5943,0.5942,0,0.5637,0.5637,0.5679,0.5686,0.5703,0.5715,0.5726,0.5766,0.5776,0.5806,0.5806,0.5823,0.5838,0.5858,0.5888,0.5906,0.5919,0.5895,0.5922,0.591,0.5916,0.5915,0.5914,0.5889,0.5888,0.5887,0.5886,0,0.5576,0.5594,0.5609,0.563,0.5643,0.5661,0.5681,0.5685,0.573,0.5739,0.5754,0.5766,0.5789,0.5805,0.5827,0.5845,0.5872,0.5878,0.5875,0.5862,0.5848,0.5854,0.5933,0.5879,0.588,0.588,0.588,0.5881,0.5526,0.5528,0.5557,0.5572,0.5592,0.561,0.5615,0.5642,0.5655,0.5677,0.57,0.5712,0.5739,0.5771,0.5787,0.5797,0.5811,0.5807,0.5805,0.5803,0.5797,0.5849,0.5801,0.5801,0.5802,0.5802,0.5802,0,0.5466,0.5487,0.5501,0.5528,0.554,0.5566,0.559,0.5597,0.5608,0.5631,0.5645,0.5662,0.5677,0.5709,0.5727,0.5728,0.5741,0.5731,0.573,0.5734,0.5784,0.5784,0.572,0.572,0.572,0.572,0.572,0.5721,0.5436,0.544,0.5461,0.5474,0.5495,0.5508,0.5519,0.5535,0.5553,0.557,0.5583,0.5604,0.563,0.5651,0.5665,0.5674,0.5678,0.5664,0.5677,0.5723,0.573,0.5738,0.5738,0.5665,0.5665,0.5625,0.5625,0.5625]},{"header":{"parameterUnit":"m.s-1","parameterCategory":1,"la1":30.2991,"la2":30.254,"lo1":-89.0895,"lo2":-89.0444,"dy":0.0017,"dx":0.0017,"nx":28,"ny":28,"refTime":"2024-10-02T03:00:00:Z","depth":0,"parameterNumber":3,"parameterNumberName":"V-component_of_WINDS"},"data":[0,0,0,0,0,0,0,0,0,0,0,0,0,0,0,0,0,0,0,0,0,0,0,0,0,0,0,0,0,0,0,0,0,0,0,0,0,0,0,0,0,0,0,0,0,0,0,0,0,0,0,0,0,0,0,0,0,0,1.3182,1.3181,0,1.3128,1.3128,1.3127,1.3089,1.3088,1.3088,1.3088,1.303,1.3029,1.3027,0,0,0,0,0,0,0,0,0,0,0,0,0,1.3247,1.3246,1.3182,1.3181,1.318,1.3128,1.3128,1.3127,1.3089,1.3088,1.3088,1.3088,1.303,1.3029,1.3027,0,0,0,0,0,0,0,0,0,0,0,0,0,1.3209,1.3246,1.3182,1.3155,1.3152,1.3128,1.3128,1.3127,1.3089,1.3088,1.3088,1.3088,1.3031,1.3029,1.3027,1.3024,0,0,1.3021,1.302,0,0,0,0,0,0,0,0,1.3211,1.3206,1.316,1.3157,1.3154,1.3115,1.3129,1.3092,1.3089,1.3113,1.3088,1.3087,1.3058,1.3054,1.3045,1.3022,1.3019,1.3021,1.302,1.3019,1.3019,0,0,0,0,0,0,0,1.3214,1.3208,1.316,1.3159,1.3155,1.3145,1.3139,1.3122,1.3089,1.3111,1.3108,1.3102,1.3056,1.3047,1.3043,1.3018,1.3021,1.3019,1.3018,1.3018,1.2989,1.2989,0,0,0,0,0,0,1.3221,1.3211,1.3162,1.3159,1.3182,1.3144,1.3137,1.3128,1.3089,1.3082,1.3103,1.3101,1.305,1.3046,1.3041,1.3035,1.3019,1.3017,1.3016,1.2989,1.2989,1.2989,0,0,0,0,0,0,1.3223,1.3217,1.3164,1.3184,1.3177,1.3143,1.3133,1.3127,1.3117,1.3083,1.3076,1.3099,1.305,1.3044,1.3029,1.3032,1.3016,1.3015,1.2988,1.2989,1.2989,1.3023,0,0,0,0,0,0,1.3225,1.3218,1.3217,1.3184,1.3176,1.3154,1.3133,1.3126,1.3114,1.3111,1.3078,1.3072,1.3049,1.3032,1.3027,1.3029,1.3013,1.2988,1.2988,1.2989,1.3021,1.3024,1.3027,0,0,0,0,0,1.3227,1.3228,1.3218,1.3212,1.3175,1.3154,1.3149,1.3124,1.3115,1.3114,1.3091,1.3073,1.3033,1.3031,1.3025,1.3027,1.2987,1.2988,1.2989,1.302,1.3024,1.3027,0,0,0,0,0,0,1.3262,1.3224,1.3211,1.3202,1.3182,1.3148,1.3146,1.3129,1.311,1.3108,1.3076,1.3069,1.3057,1.304,1.3039,1.3021,1.3008,1.3007,1.3033,1.3036,1.3039,1.3043,1.3012,0,0,0,0,0,1.3269,1.3256,1.3223,1.3218,1.3209,1.3179,1.317,1.3152,1.3129,1.312,1.3097,1.3074,1.3057,1.3046,1.3027,1.3019,1.301,1.3017,1.302,1.3022,1.3022,1.3015,1.3018,1.2992,1.2992,1.2992,0,0,1.3282,1.326,1.3254,1.3225,1.3207,1.3194,1.3172,1.316,1.3149,1.3118,1.3102,1.3084,1.3057,1.3045,1.3039,1.3031,1.3027,1.3023,1.3026,1.3024,1.3016,1.3019,1.3021,1.2993,1.2993,1.2993,0,0,1.33,1.3282,1.3276,1.3259,1.3233,1.3213,1.3211,1.318,1.3167,1.3151,1.3127,1.3114,1.3084,1.3066,1.3052,1.3063,1.3045,1.3058,1.3073,1.3067,1.3069,1.307,1.3073,1.3075,1.3058,1.3058,1.3058,0,1.332,1.33,1.3274,1.3263,1.3251,1.3223,1.3215,1.3199,1.3168,1.316,1.3151,1.3113,1.3093,1.3076,1.3079,1.3069,1.3065,1.3061,1.3071,1.3072,1.3073,1.3075,1.3077,1.306,1.3059,1.3059,1.3059,0,1.3325,1.3312,1.331,1.3282,1.3269,1.326,1.3231,1.3221,1.3204,1.3185,1.3169,1.3144,1.312,1.3114,1.3097,1.3094,1.309,1.3077,1.3062,1.3078,1.3079,1.308,1.3062,1.3061,1.3061,1.306,0,0,1.3364,1.3321,1.3321,1.3307,1.3276,1.3265,1.3253,1.3231,1.3222,1.3202,1.3191,1.3166,1.3154,1.3139,1.3119,1.3114,1.3123,1.3101,1.31,1.3105,1.3117,1.3127,1.3128,1.3111,1.3111,1.3111,1.3119,0,1.3376,1.3356,1.3332,1.332,1.3307,1.328,1.327,1.3249,1.323,1.3215,1.3194,1.3177,1.3162,1.3153,1.3146,1.3123,1.3124,1.3122,1.3099,1.3099,1.3106,1.3129,1.314,1.3148,1.3119,1.3119,1.3119,0,1.3388,1.337,1.3356,1.3326,1.3319,1.3311,1.3288,1.3275,1.325,1.3237,1.322,1.32,1.3185,1.3173,1.3152,1.3151,1.314,1.3127,1.3126,1.3123,1.311,1.3126,1.315,1.3152,1.312,1.312,1.312,0,1.3417,1.3388,1.3376,1.3366,1.333,1.3325,1.3309,1.3284,1.3272,1.3251,1.3243,1.3221,1.3208,1.3191,1.3165,1.3158,1.3146,1.3132,1.3134,1.3134,1.3132,1.3132,1.3155,1.3126,1.3126,1.3126,1.3126,0,1.3433,1.3425,1.3389,1.3381,1.3372,1.3344,1.3335,1.3317,1.3295,1.3282,1.3257,1.3246,1.3212,1.3196,1.3175,1.3161,1.3155,1.3143,1.3138,1.3145,1.3147,1.3137,1.3136,1.3126,1.3126,1.3126,1.3126,0,1.3463,1.3438,1.3423,1.3391,1.3382,1.3377,1.3348,1.3339,1.3319,1.3304,1.3299,1.3267,1.3247,1.3219,1.3191,1.3176,1.3164,1.3156,1.3173,1.317,1.3173,1.3173,1.319,1.319,1.3162,1.3162,1.3163,0,1.3475,1.3469,1.3436,1.3426,1.3412,1.3397,1.3384,1.3356,1.3344,1.3315,1.331,1.3288,1.3269,1.3239,1.3212,1.319,1.318,1.3188,1.3176,1.3184,1.3179,1.318,1.3179,1.319,1.3191,1.3191,1.3191,0,1.3498,1.3486,1.347,1.3449,1.3435,1.3417,1.3398,1.3391,1.3359,1.3346,1.3326,1.3312,1.3283,1.3261,1.3235,1.3218,1.3199,1.3195,1.3194,1.3202,1.3212,1.3206,1.318,1.3195,1.3194,1.3194,1.3194,1.3194,1.3519,1.3512,1.3488,1.347,1.3453,1.3435,1.3425,1.3404,1.3387,1.3363,1.3347,1.3327,1.3301,1.3265,1.3248,1.3232,1.3224,1.3223,1.3222,1.3223,1.3225,1.3215,1.3227,1.3227,1.3227,1.3226,1.3226,0,1.354,1.3523,1.3508,1.3482,1.3468,1.3452,1.343,1.3419,1.3402,1.3381,1.3363,1.3339,1.3318,1.329,1.3267,1.3259,1.3249,1.3253,1.3253,1.325,1.3234,1.3236,1.3261,1.3261,1.3261,1.3261,1.3261,1.3261,1.355,1.3537,1.3522,1.35,1.3483,1.3464,1.3453,1.3436,1.3419,1.3394,1.3377,1.3359,1.3334,1.3309,1.3288,1.328,1.3272,1.3279,1.3269,1.3254,1.3251,1.3248,1.325,1.3278,1.3278,1.3286,1.3286,1.3286]}]]